Location: Centerville
(32.8776°N, 96.6203°W)
Time: 13:36:30
(UTC+00:00)

Meteor 2-11 Rocket - Pass Details

Date: 17 June 2021
Orbit: 938 x 958 km, 82.5° (Epoch: 30 July)

Event Time Altitude Azimuth Distance (km) Brightness Sun altitude
Rises 04:20:18 0° 352° (N) 3,622 8.5 -26.1°
Reaches altitude 10° 04:22:48 10° 351° (N) 2,671 7.6 -26.4°
Maximum altitude 04:28:54 79° 266° (W) 962 4.4 -27.0°
Enters shadow 04:29:48 65° 200° (SSW) 1,027 4.4 -27.1°
